Starlink 4567

operational
NORAD ID: 53970 Int'l Des: 2022-125 Owner: SPXS Country: US Constellation: starlink
LEOCIRCULAR

About Starlink 4567

Description loading...

Live Position

Loading 3D Globe...

Upcoming Passes

Altitude History

Altitude vs Time

uPlot chart will show altitude changes over time

Two-Line Element Set

1 53970U 22125G 25302.67894638 .00000159 00000-0 28070-4 0 9995
2 53970 53.2167 87.2912 0001353 88.1197 271.9950 15.08839967169628
Epoch: Oct 29, 2025 • Age: 29 hours

Current Status

Altitude 542.6 km
Velocity 7.59 km/s
Sub-Earth Point -9.54°S, 82.48°E
Launch Date Oct 5, 2022
Age 3 years
Type internet

Technical Details

Classification Payload
Mass 305.00 kg
Dry Mass 290.00 kg
Total Mass 305.00 kg
Length 0.20 m
Diameter 2.80 m
Span 9.00 m
Shape Box + pan
Manufacturer SPXS
Bus Type Starlink
Phase Status In Orbit
Owner/State SPXS/US

Large Constellations

Loading constellations...